Taylorville, IL

9:41 PM CST on February 24, 2017 (GMT -0600)
Taylorville Municipal

Weather History for KTAZ - April, 2014

Change the Weather History Date:

Wednesday, April 2, 2014

  Actual Average (KSPI) Record (KSPI)
Temperature  
Mean Temperature 46 °F -  
Max Temperature 51 °F 57 °F 87 °F (1981)
Min Temperature 41 °F 37 °F 21 °F (1961)
Degree Days  
Heating Degree Days 19    
Moisture  
Dew Point 44 °F    
Average Humidity 93    
Maximum Humidity 100    
Minimum Humidity 81    
Precipitation  
Precipitation 0.59 in - - ()
Sea Level Pressure  
Sea Level Pressure 30.01 in    
Wind  
Wind Speed 8 mph (East)    
Max Wind Speed 20 mph    
Max Gust Speed 23 mph    
Visibility 8 miles    
Events Rain , Thunderstorm    
Averages and records for this station are not official NWS values.
T = Trace of Precipitation, MM = Missing Value Source: NWS Daily Summary

Daily Weather History Graph

Daily Weather History Graph

Search for Another Location

Airport or City:

Trip Planner

Search our weather history database for the weather conditions in past years. The results will help you decide how hot, cold, wet, or windy it might be!

Date:

Astronomy

Apr. 02, 2014 Rise Set
Actual Time 6:39 AM CDT 7:22 PM CDT
Civil Twilight 6:12 AM CDT 7:49 PM CDT
Nautical Twilight 5:40 AM CDT 8:21 PM CDT
Astronomical Twilight 5:07 AM CDT 8:54 PM CDT
Moon 8:25 AM CDT (4/2) 10:44 PM CDT (4/2)
Length of Visible Light 13h 36m
Length of Day
12h 42m
Waxing Crescent, 10% of the Moon is Illuminated
Apr 2
Waxing Crescent
Apr 7
First Quarter
Apr 15
Full
Apr 22
Last Quarter
Apr 29
New

Hourly Weather History & Observations

Time (CDT) Temp. Windchill Dew Point Humidity Pressure Visibility Wind Dir Wind Speed Gust Speed Precip Events Conditions
12:15 AM 42.8 °F 39.3 °F 39.2 °F 87% 30.07 in 10.0 mi East 5.8 mph - N/A   Overcast
12:35 AM 42.8 °F 39.3 °F 37.4 °F 81% 30.07 in 10.0 mi NE 5.8 mph - N/A   Overcast
12:55 AM 42.8 °F 41.1 °F 37.4 °F 81% 30.09 in 7.0 mi North 3.5 mph - N/A Rain Rain
1:15 AM 42.8 °F 39.3 °F 39.2 °F 87% 30.08 in 10.0 mi East 5.8 mph - N/A   Overcast
1:35 AM 42.8 °F 38.6 °F 39.2 °F 87% 30.08 in 10.0 mi NNE 6.9 mph - N/A   Overcast
1:55 AM 42.8 °F 40.1 °F 39.2 °F 87% 30.08 in 10.0 mi NE 4.6 mph - N/A   Overcast
2:15 AM 42.8 °F 41.1 °F 39.2 °F 87% 30.08 in 5.0 mi East 3.5 mph - 0.03 in Rain Heavy Rain
2:35 AM 42.8 °F 40.1 °F 39.2 °F 87% 30.08 in 10.0 mi NE 4.6 mph - 0.04 in   Light Drizzle
2:55 AM 42.8 °F 39.3 °F 39.2 °F 87% 30.07 in 10.0 mi ENE 5.8 mph - 0.04 in   Overcast
3:15 AM 42.8 °F 38.0 °F 39.2 °F 87% 30.07 in 10.0 mi ENE 8.1 mph - N/A   Overcast
3:35 AM 42.8 °F 38.6 °F 39.2 °F 87% 30.07 in 10.0 mi ENE 6.9 mph - N/A   Overcast
3:55 AM 42.8 °F 38.6 °F 39.2 °F 87% 30.08 in 10.0 mi NE 6.9 mph - N/A Thunderstorm Unknown
4:15 AM 41.0 °F 37.1 °F 39.2 °F 93% 30.09 in 10.0 mi NE 5.8 mph - N/A Rain Rain
4:35 AM 41.0 °F 37.1 °F 37.4 °F 87% 30.10 in 7.0 mi East 5.8 mph - 0.01 in Rain Rain
4:55 AM 41.0 °F 39.0 °F 39.2 °F 93% 30.10 in 7.0 mi East 3.5 mph - 0.05 in Rain Rain
5:15 AM 41.0 °F 38.0 °F 39.2 °F 93% 30.11 in 7.0 mi East 4.6 mph - 0.01 in Rain , Thunderstorm Rain
5:35 AM 41.0 °F 36.4 °F 39.2 °F 93% 30.10 in 5.0 mi East 6.9 mph - 0.05 in Rain , Thunderstorm Rain
5:55 AM 41.0 °F 35.2 °F 39.2 °F 93% 30.09 in 7.0 mi East 9.2 mph - 0.07 in Rain , Thunderstorm Light Thunderstorms and Rain
6:15 AM 41.0 °F 34.7 °F 39.2 °F 93% 30.07 in 7.0 mi East 10.4 mph - 0.01 in Rain Light Rain
7:35 AM 41.0 °F 36.4 °F 39.2 °F 93% 30.08 in 5.0 mi East 6.9 mph - N/A   Mostly Cloudy
7:55 AM 41.0 °F 35.2 °F 39.2 °F 93% 30.08 in 7.0 mi East 9.2 mph - N/A   Overcast
8:15 AM 42.8 °F 37.5 °F 39.2 °F 87% 30.08 in 7.0 mi East 9.2 mph - N/A   Overcast
8:35 AM 42.8 °F 37.0 °F 41.0 °F 93% 30.07 in 7.0 mi East 10.4 mph - N/A   Overcast
8:55 AM 42.8 °F 37.5 °F 41.0 °F 93% 30.07 in 10.0 mi East 9.2 mph - N/A   Overcast
9:15 AM 42.8 °F 37.0 °F 41.0 °F 93% 30.06 in 10.0 mi East 10.4 mph 17.3 mph N/A   Overcast
9:35 AM 44.6 °F 38.1 °F 41.0 °F 87% 30.05 in 10.0 mi East 13.8 mph 19.6 mph N/A   Overcast
9:55 AM 44.6 °F 39.7 °F 41.0 °F 87% 30.08 in 10.0 mi East 9.2 mph - N/A   Overcast
10:15 AM 44.6 °F 39.2 °F 42.8 °F 93% 30.08 in 10.0 mi ENE 10.4 mph - N/A   Overcast
10:35 AM 44.6 °F 39.2 °F 42.8 °F 93% 30.05 in 10.0 mi East 10.4 mph - N/A   Overcast
10:55 AM 44.6 °F 40.2 °F 42.8 °F 93% 30.06 in 10.0 mi East 8.1 mph - N/A Rain Light Rain
11:35 AM 44.6 °F 39.7 °F 42.8 °F 93% 30.07 in 10.0 mi ENE 9.2 mph - 0.01 in Rain , Thunderstorm Light Thunderstorms and Rain
11:55 AM 44.6 °F 40.2 °F 42.8 °F 93% 30.05 in 7.0 mi ENE 8.1 mph - 0.04 in Rain , Thunderstorm Thunderstorms and Rain
12:15 PM 44.6 °F 42.2 °F 42.8 °F 93% 30.07 in 4.0 mi ENE 4.6 mph - 0.04 in Rain , Thunderstorm Rain
12:35 PM 44.6 °F 42.2 °F 42.8 °F 93% 30.08 in 3.0 mi East 4.6 mph - N/A Rain , Thunderstorm Thunderstorms and Rain
12:55 PM 44.6 °F 40.7 °F 42.8 °F 93% 30.07 in 3.0 mi ESE 6.9 mph - 0.21 in Rain , Thunderstorm Thunderstorms and Rain
1:15 PM 44.6 °F 39.2 °F 42.8 °F 93% 30.03 in 3.0 mi East 10.4 mph - 0.08 in Rain Rain
1:35 PM 44.6 °F 37.4 °F 44.6 °F 100% 29.99 in 4.0 mi East 16.1 mph 23.0 mph 0.11 in Rain , Thunderstorm Light Thunderstorms and Rain
1:55 PM 44.6 °F 36.6 °F 44.6 °F 100% 29.95 in 5.0 mi East 19.6 mph 23.0 mph 0.13 in Rain Light Rain
2:15 PM 46.4 °F 40.4 °F 44.6 °F 93% 29.96 in 7.0 mi East 13.8 mph 18.4 mph N/A   Overcast
2:35 PM 46.4 °F 40.1 °F 46.4 °F 100% 29.96 in 7.0 mi East 15.0 mph 21.9 mph N/A   Overcast
2:55 PM 50.0 °F - 46.4 °F 87% 29.97 in 10.0 mi ESE 16.1 mph 20.7 mph N/A   Overcast
3:15 PM 50.0 °F - 46.4 °F 87% 29.98 in 10.0 mi SE 11.5 mph - N/A   Overcast
3:35 PM 50.0 °F - 46.4 °F 87% 29.96 in 10.0 mi ESE 12.7 mph 18.4 mph N/A Thunderstorm Overcast
3:55 PM 50.0 °F - 48.2 °F 94% 29.95 in 10.0 mi ESE 15.0 mph - N/A Thunderstorm Overcast
4:15 PM 50.0 °F - 48.2 °F 94% 29.95 in 10.0 mi ESE 12.7 mph 20.7 mph N/A Thunderstorm Overcast
4:35 PM 51.8 °F - 48.2 °F 88% 29.94 in 10.0 mi ESE 17.3 mph - N/A Thunderstorm Thunderstorm
4:55 PM 50.0 °F - 48.2 °F 94% 29.94 in 10.0 mi ESE 16.1 mph 21.9 mph N/A Thunderstorm Overcast
5:15 PM 51.8 °F - 50.0 °F 94% 29.94 in 10.0 mi ESE 13.8 mph - N/A Thunderstorm Overcast
5:35 PM 51.8 °F - 48.2 °F 88% 29.93 in 10.0 mi East 9.2 mph - N/A   Overcast
5:55 PM 51.8 °F - 48.2 °F 88% 29.93 in 10.0 mi East 8.1 mph - N/A   Overcast
6:15 PM 51.8 °F - 50.0 °F 94% 29.93 in 10.0 mi East 6.9 mph - N/A   Overcast
6:35 PM 50.0 °F - 50.0 °F 100% 29.93 in 7.0 mi East 8.1 mph - 0.01 in Rain Rain
6:55 PM 50.0 °F - 50.0 °F 100% 29.92 in 5.0 mi ENE 9.2 mph - 0.01 in   Overcast
7:15 PM 50.0 °F - 50.0 °F 100% 29.92 in 7.0 mi East 6.9 mph - 0.01 in Rain , Thunderstorm Rain
7:35 PM 50.0 °F - 50.0 °F 100% 29.92 in 7.0 mi East 10.4 mph - 0.02 in   Light Drizzle
7:55 PM 50.0 °F - 50.0 °F 100% 29.93 in 7.0 mi East 9.2 mph - 0.02 in Rain Light Rain
8:15 PM 50.0 °F - 50.0 °F 100% 29.93 in 7.0 mi East 9.2 mph - N/A   Overcast
8:35 PM 50.0 °F - 50.0 °F 100% 29.92 in 7.0 mi East 11.5 mph - N/A   Overcast
8:55 PM 50.0 °F - 50.0 °F 100% 29.93 in 7.0 mi East 9.2 mph - N/A   Overcast
9:15 PM 50.0 °F - 50.0 °F 100% 29.94 in 7.0 mi East 13.8 mph - N/A Rain Light Rain
9:35 PM 50.0 °F - 50.0 °F 100% 29.94 in 5.0 mi East 13.8 mph - N/A Rain Rain
9:55 PM 50.0 °F - 50.0 °F 100% 29.94 in 7.0 mi East 11.5 mph 17.3 mph 0.01 in   Overcast
10:15 PM 50.0 °F - 50.0 °F 100% 29.93 in 7.0 mi East 12.7 mph - N/A   Overcast
10:35 PM 50.0 °F - 50.0 °F 100% 29.92 in 5.0 mi East 12.7 mph - N/A Rain Light Rain
10:55 PM 50.0 °F - 50.0 °F 100% 29.92 in 5.0 mi East 11.5 mph 18.4 mph N/A   Overcast
11:15 PM 50.0 °F - 50.0 °F 100% 29.92 in 5.0 mi East 11.5 mph - N/A   Overcast
11:35 PM 50.0 °F - 50.0 °F 100% 29.90 in 3.0 mi East 11.5 mph - N/A   Overcast
11:55 PM 50.0 °F - 50.0 °F 100% 29.88 in 3.0 mi East 12.7 mph - N/A Thunderstorm Overcast